When you browse on this site, cookies collect data to enhance your experience and personalize the content and advertising you see.
Visit our Privacy Policy to learn more. By continuing to use the site, you agree to this use of cookies and data.
  • In Hungary
  • List of Countries
  • For 7 days
  • Water Temperature
  • Weather Map
  • News
  • Weather Widgets
  • user-avatar
    Login

    Hourly Weather Jetpur

    Today, 19 November, Tuesday

    Time Temperature Precipitation Wind Pressure Humidity
    00:00 +27°C° 0 mm 2 mps 752 mmHg 47%
    01:00 +26°C° 0 mm 2 mps 752 mmHg 48%
    02:00 +26°C° 0 mm 2 mps 752 mmHg 49%
    03:00 +26°C° 0 mm 2 mps 751 mmHg 50%
    04:00 +25°C° 0 mm 2 mps 751 mmHg 51%
    05:00 +25°C° 0 mm 2 mps 751 mmHg 53%
    06:00 +25°C° 0 mm 2 mps 752 mmHg 52%
    07:00 +26°C° 0 mm 2 mps 752 mmHg 51%
    08:00 +27°C° 0 mm 2 mps 753 mmHg 50%
    09:00 +28°C° 0 mm 2 mps 753 mmHg 44%
    10:00 +30°C° 0 mm 2 mps 753 mmHg 39%
    11:00 +31°C° 0 mm 2 mps 752 mmHg 34%
    12:00 +32°C° 0 mm 2 mps 752 mmHg 30%
    13:00 +33°C° 0 mm 1 mps 751 mmHg 27%
    14:00 +34°C° 0 mm 1 mps 750 mmHg 24%
    15:00 +34°C° 0 mm 1 mps 750 mmHg 25%
    16:00 +33°C° 0 mm 1 mps 750 mmHg 26%
    17:00 +34°C° 0 mm 2 mps 750 mmHg 27%
    18:00 +31°C° 0 mm 2 mps 750 mmHg 31%
    19:00 +30°C° 0 mm 2 mps 751 mmHg 35%
    20:00 +28°C° 0 mm 3 mps 751 mmHg 39%
    21:00 +28°C° 0 mm 2 mps 751 mmHg 41%
    22:00 +27°C° 0 mm 2 mps 751 mmHg 42%
    23:00 +27°C° 0 mm 2 mps 751 mmHg 43%

    Tomorrow, 20 November, Wednesday

    Time Temperature Precipitation Wind Pressure Humidity
    00:00 +26°C° 0 mm 2 mps 751 mmHg 45%
    01:00 +26°C° 0 mm 2 mps 751 mmHg 47%
    02:00 +25°C° 0 mm 2 mps 750 mmHg 49%
    03:00 +25°C° 0 mm 1 mps 750 mmHg 49%
    04:00 +25°C° 0 mm 1 mps 750 mmHg 50%
    05:00 +24°C° 0 mm 1 mps 750 mmHg 51%
    06:00 +25°C° 0 mm 2 mps 750 mmHg 48%
    07:00 +26°C° 0 mm 2 mps 751 mmHg 46%
    08:00 +27°C° 0 mm 2 mps 752 mmHg 43%
    09:00 +28°C° 0 mm 2 mps 752 mmHg 38%
    10:00 +30°C° 0 mm 2 mps 752 mmHg 34%
    11:00 +31°C° 0 mm 2 mps 751 mmHg 29%
    12:00 +32°C° 0 mm 1 mps 751 mmHg 27%
    13:00 +33°C° 0 mm 1 mps 750 mmHg 25%
    14:00 +34°C° 0 mm 1 mps 750 mmHg 23%
    15:00 +33°C° 0 mm 1 mps 750 mmHg 24%
    16:00 +33°C° 0 mm 1 mps 749 mmHg 25%
    17:00 +32°C° 0 mm 1 mps 749 mmHg 27%
    18:00 +31°C° 0 mm 1 mps 750 mmHg 31%
    19:00 +29°C° 0 mm 1 mps 750 mmHg 35%
    20:00 +28°C° 0 mm 2 mps 751 mmHg 39%
    21:00 +27°C° 0 mm 1 mps 751 mmHg 42%
    22:00 +26°C° 0 mm 1 mps 751 mmHg 45%
    23:00 +26°C° 0 mm 1 mps 750 mmHg 48%

    Day after tomorrow, 21 November, Thursday

    Time Temperature Precipitation Wind Pressure Humidity
    00:00 +25°C° 0 mm 1 mps 750 mmHg 50%
    01:00 +25°C° 0 mm 1 mps 750 mmHg 51%
    02:00 +22°C° 0 mm 0 mps 750 mmHg 52%
    03:00 +24°C° 0 mm 1 mps 750 mmHg 51%
    04:00 +24°C° 0 mm 1 mps 750 mmHg 49%
    05:00 +24°C° 0 mm 2 mps 750 mmHg 48%
    06:00 +25°C° 0 mm 2 mps 750 mmHg 46%
    07:00 +26°C° 0 mm 2 mps 751 mmHg 44%
    08:00 +26°C° 0 mm 2 mps 751 mmHg 42%
    09:00 +28°C° 0 mm 3 mps 752 mmHg 39%
    10:00 +30°C° 0 mm 3 mps 752 mmHg 35%
    11:00 +33°C° 0 mm 3 mps 752 mmHg 32%
    12:00 +34°C° 0 mm 2 mps 751 mmHg 29%
    13:00 +35°C° 0 mm 2 mps 750 mmHg 26%
    14:00 +34°C° 0 mm 1 mps 750 mmHg 23%
    15:00 +34°C° 0 mm 1 mps 750 mmHg 24%
    16:00 +33°C° 0 mm 1 mps 750 mmHg 26%
    17:00 +33°C° 0 mm 1 mps 750 mmHg 27%
    18:00 +31°C° 0 mm 1 mps 750 mmHg 33%
    19:00 +29°C° 0 mm 2 mps 751 mmHg 38%
    20:00 +28°C° 0 mm 2 mps 751 mmHg 44%
    21:00 +27°C° 0 mm 2 mps 751 mmHg 46%
    22:00 +27°C° 0 mm 2 mps 751 mmHg 49%
    23:00 +26°C° 0 mm 2 mps 751 mmHg 51%

    22 November, Friday

    Time Temperature Precipitation Wind Pressure Humidity
    00:00 +26°C° 0 mm 2 mps 751 mmHg 52%
    01:00 +25°C° 0 mm 2 mps 751 mmHg 53%
    02:00 +25°C° 0 mm 1 mps 751 mmHg 54%
    03:00 +25°C° 0 mm 1 mps 751 mmHg 55%
    04:00 +24°C° 0 mm 1 mps 751 mmHg 56%
    05:00 +24°C° 0 mm 1 mps 751 mmHg 57%
    06:00 +23°C° 0 mm 0 mps 751 mmHg 54%
    07:00 +24°C° 0 mm 0 mps 752 mmHg 51%
    08:00 +25°C° 0 mm 0 mps 752 mmHg 48%
    09:00 +29°C° 0 mm 1 mps 752 mmHg 43%
    10:00 +31°C° 0 mm 1 mps 752 mmHg 38%
    11:00 +33°C° 0 mm 1 mps 753 mmHg 33%
    12:00 +33°C° 0 mm 1 mps 752 mmHg 30%
    13:00 +32°C° 0 mm 0 mps 751 mmHg 27%
    14:00 +33°C° 0 mm 0 mps 751 mmHg 23%
    15:00 +33°C° 0 mm 0 mps 751 mmHg 24%
    16:00 +34°C° 0 mm 1 mps 750 mmHg 25%
    17:00 +34°C° 0 mm 1 mps 750 mmHg 26%
    18:00 +32°C° 0 mm 1 mps 751 mmHg 31%
    19:00 +31°C° 0 mm 2 mps 751 mmHg 36%
    20:00 +29°C° 0 mm 3 mps 751 mmHg 41%
    21:00 +28°C° 0 mm 3 mps 751 mmHg 45%
    22:00 +28°C° 0 mm 3 mps 751 mmHg 48%
    23:00 +27°C° 0 mm 3 mps 751 mmHg 51%

    23 November, Saturday

    Time Temperature Precipitation Wind Pressure Humidity
    00:00 +27°C° 0 mm 2 mps 751 mmHg 52%
    01:00 +27°C° 0 mm 1 mps 751 mmHg 53%
    02:00 +26°C° 0 mm 1 mps 751 mmHg 54%
    03:00 +26°C° 0 mm 1 mps 751 mmHg 54%
    04:00 +26°C° 0 mm 1 mps 751 mmHg 54%
    05:00 +26°C° 0 mm 1 mps 751 mmHg 54%
    06:00 +27°C° 0 mm 1 mps 751 mmHg 52%
    07:00 +27°C° 0 mm 2 mps 752 mmHg 51%
    08:00 +28°C° 0 mm 2 mps 752 mmHg 49%
    09:00 +30°C° 0 mm 2 mps 752 mmHg 44%
    10:00 +31°C° 0 mm 3 mps 752 mmHg 39%
    11:00 +34°C° 0 mm 3 mps 753 mmHg 34%
    12:00 +35°C° 0 mm 2 mps 752 mmHg 32%
    13:00 +36°C° 0 mm 2 mps 751 mmHg 29%
    14:00 +36°C° 0 mm 2 mps 750 mmHg 27%
    15:00 +36°C° 0 mm 2 mps 751 mmHg 27%
    16:00 +35°C° 0 mm 2 mps 751 mmHg 28%
    17:00 +35°C° 0 mm 2 mps 751 mmHg 28%
    18:00 +32°C° 0 mm 2 mps 751 mmHg 33%
    19:00 +31°C° 0 mm 2 mps 751 mmHg 37%
    20:00 +29°C° 0 mm 2 mps 751 mmHg 42%
    21:00 +28°C° 0 mm 2 mps 751 mmHg 45%
    22:00 +28°C° 0 mm 1 mps 751 mmHg 48%
    23:00 +27°C° 0 mm 1 mps 751 mmHg 52%

    24 November, Sunday

    Time Temperature Precipitation Wind Pressure Humidity
    00:00 +27°C° 0 mm 1 mps 751 mmHg 51%
    01:00 +26°C° 0 mm 1 mps 751 mmHg 50%
    02:00 +26°C° 0 mm 1 mps 750 mmHg 49%
    03:00 +26°C° 0 mm 1 mps 750 mmHg 49%
    04:00 +25°C° 0 mm 1 mps 750 mmHg 49%
    05:00 +25°C° 0 mm 1 mps 750 mmHg 49%
    06:00 +26°C° 0 mm 2 mps 751 mmHg 48%
    07:00 +27°C° 0 mm 2 mps 751 mmHg 46%
    08:00 +27°C° 0 mm 2 mps 752 mmHg 45%
    09:00 +29°C° 0 mm 2 mps 752 mmHg 40%
    10:00 +31°C° 0 mm 2 mps 752 mmHg 35%
    11:00 +34°C° 0 mm 3 mps 752 mmHg 31%
    12:00 +35°C° 0 mm 2 mps 751 mmHg 28%
    13:00 +35°C° 0 mm 2 mps 750 mmHg 26%
    14:00 +36°C° 0 mm 2 mps 750 mmHg 23%
    15:00 +36°C° 0 mm 2 mps 750 mmHg 24%
    16:00 +35°C° 0 mm 2 mps 750 mmHg 25%
    17:00 +35°C° 0 mm 2 mps 750 mmHg 26%
    18:00 +32°C° 0 mm 2 mps 750 mmHg 31%
    19:00 +31°C° 0 mm 2 mps 750 mmHg 36%
    20:00 +29°C° 0 mm 2 mps 751 mmHg 41%
    21:00 +28°C° 0 mm 2 mps 751 mmHg 43%
    22:00 +28°C° 0 mm 2 mps 751 mmHg 46%
    23:00 +27°C° 0 mm 1 mps 751 mmHg 49%
    Show more